Location: Chervonnoye
(48.6000°N, 34.4000°E)
Time: 03:56:01
(UTC+00:00)

X-37B - Pass Details

Date: 28 September 2021
Orbit: 385 x 389 km, 45.0° (Epoch: 13 October)

Event Time Altitude Azimuth Distance (km) Brightness Sun altitude
Exits shadow 02:26:08 22° 243° (WSW) 891 1.8 -12.6°
Maximum altitude 02:27:46 43° 182° (S) 556 1.2 -12.3°
Drops below altitude 10° 02:30:48 10° 110° (ESE) 1,414 4.4 -11.8°
Sets 02:32:56 0° 103° (ESE) 2,270 5.8 -11.5°
